Weather History for Anoka County, MN

Change the Weather History Date:

Thursday, December 5, 2013

  Actual Average Record
Temperature  
Mean Temperature 8 °F -  
Max Temperature 15 °F 32 °F 66 °F (2001)
Min Temperature 0 °F 18 °F -5 °F (2007)
Degree Days  
Heating Degree Days 58    
Moisture  
Dew Point 1 °F    
Average Humidity 76    
Maximum Humidity 86    
Minimum Humidity 62    
Precipitation  
Precipitation 0.00 in - - ()
Sea Level Pressure  
Sea Level Pressure 29.98 in    
Wind  
Wind Speed 13 mph (WSW)    
Max Wind Speed 20 mph    
Max Gust Speed 25 mph    
Visibility 10 miles    
Events Snow    
Averages and records for this station are not official NWS values.
T = Trace of Precipitation, MM = Missing Value Source: NWS Daily Summary

Daily Weather History Graph

Daily Weather History Graph

Search for Another Location

Airport:

Trip Planner

Search our weather history database for the weather conditions in past years. The results will help you decide how hot, cold, wet, or windy it might be!

Date:

Astronomy

Dec. 05, 2013 Rise Set
Actual Time 7:36 AM CST 4:31 PM CST
Civil Twilight 7:02 AM CST 5:04 PM CST
Nautical Twilight 6:25 AM CST 5:41 PM CST
Astronomical Twilight 5:49 AM CST 6:17 PM CST
Moon 9:52 AM CST (12/5) 7:57 PM CST (12/5)
Length of Visible Light 10h 02m
Length of Day
8h 55m
Waxing Crescent, 11% of the Moon is Illuminated
Dec 5
Waxing Crescent
Dec 9
First Quarter
Dec 17
Full
Dec 25
Last Quarter
Jan 1
New

Hourly Weather History & Observations

Time (CST) Temp. Windchill Dew Point Humidity Pressure Visibility Wind Dir Wind Speed Gust Speed Precip Events Conditions
12:14 AM 15.8 °F 2.1 °F 10.4 °F 79% 29.67 in 10.0 mi WSW 12.7 mph 20.7 mph N/A Snow Light Snow
12:34 AM 14.0 °F 1.2 °F 10.4 °F 86% 29.69 in 10.0 mi WSW 10.4 mph 20.7 mph N/A Snow Light Snow
12:54 AM 14.0 °F -0.8 °F 8.6 °F 79% 29.70 in 10.0 mi WSW 13.8 mph 23.0 mph N/A Snow Light Snow
1:14 AM 12.2 °F -3.7 °F 8.6 °F 85% 29.70 in 10.0 mi WSW 15.0 mph 23.0 mph N/A   Overcast
1:34 AM 12.2 °F -3.1 °F 6.8 °F 79% 29.71 in 10.0 mi WSW 13.8 mph 20.7 mph N/A   Overcast
1:54 AM 12.2 °F -3.7 °F 6.8 °F 79% 29.72 in 10.0 mi West 15.0 mph 20.7 mph N/A   Overcast
2:13 AM 10.4 °F -6.6 °F 6.8 °F 85% 29.73 in 10.0 mi WSW 16.1 mph 24.2 mph N/A   Mostly Cloudy
2:34 AM 10.4 °F -8.2 °F 6.8 °F 85% 29.74 in 10.0 mi West 19.6 mph 24.2 mph N/A   Mostly Cloudy
2:54 AM 10.4 °F -6.6 °F 5.0 °F 79% 29.77 in 10.0 mi WSW 16.1 mph 21.9 mph N/A   Scattered Clouds
3:14 AM 10.4 °F -4.8 °F 3.2 °F 73% 29.78 in 10.0 mi WSW 12.7 mph 25.3 mph N/A   Scattered Clouds
3:34 AM 8.6 °F -9.5 °F 3.2 °F 79% 29.79 in 10.0 mi West 17.3 mph 24.2 mph N/A   Scattered Clouds
3:54 AM 8.6 °F -6.3 °F 3.2 °F 79% 29.80 in 10.0 mi WSW 11.5 mph 21.9 mph N/A   Mostly Cloudy
4:14 AM 8.6 °F -7.0 °F 3.2 °F 79% 29.81 in 10.0 mi WSW 12.7 mph 19.6 mph N/A   Overcast
4:34 AM 8.6 °F -5.5 °F 3.2 °F 79% 29.82 in 10.0 mi WSW 10.4 mph - N/A   Overcast
4:53 AM 8.6 °F -5.5 °F 3.2 °F 79% 29.84 in 10.0 mi WSW 10.4 mph 16.1 mph N/A   Overcast
5:14 AM 8.6 °F -8.3 °F 3.2 °F 79% 29.86 in 10.0 mi WSW 15.0 mph 20.7 mph N/A   Overcast
5:33 AM 8.6 °F -8.9 °F 3.2 °F 79% 29.87 in 10.0 mi WSW 16.1 mph 20.7 mph N/A   Overcast
5:54 AM 8.6 °F -8.3 °F 3.2 °F 79% 29.87 in 7.0 mi WSW 15.0 mph 18.4 mph N/A   Overcast
6:14 AM 8.6 °F -8.3 °F 3.2 °F 79% 29.88 in 10.0 mi WSW 15.0 mph 20.7 mph N/A   Overcast
6:34 AM 8.6 °F -6.3 °F 3.2 °F 79% 29.89 in 10.0 mi West 11.5 mph 18.4 mph N/A   Overcast
6:54 AM 6.8 °F -10.0 °F 3.2 °F 85% 29.91 in 10.0 mi WSW 13.8 mph 19.6 mph N/A   Overcast
7:50 AM 6.8 °F -10.7 °F 1.4 °F 79% 29.93 in 10.0 mi West 15.0 mph 21.9 mph N/A   Scattered Clouds
8:45 AM 6.8 °F -10.0 °F -0.4 °F 72% 29.97 in 10.0 mi WSW 13.8 mph 21.9 mph N/A   Partly Cloudy
9:45 AM 6.8 °F -11.8 °F -0.4 °F 72% 30.02 in 10.0 mi WSW 17.3 mph 23.0 mph N/A   Partly Cloudy
10:45 AM 6.8 °F -12.4 °F -0.4 °F 72% 30.06 in 10.0 mi West 18.4 mph 23.0 mph N/A   Scattered Clouds
11:45 AM 6.8 °F -11.8 °F -0.4 °F 72% 30.05 in 10.0 mi WSW 17.3 mph 25.3 mph N/A   Scattered Clouds
12:45 PM 8.6 °F -5.5 °F -0.4 °F 67% 30.07 in 10.0 mi WSW 10.4 mph - N/A   Scattered Clouds
1:45 PM 10.4 °F -4.8 °F -0.4 °F 62% 30.07 in 10.0 mi West 12.7 mph 20.7 mph N/A   Scattered Clouds
2:45 PM 10.4 °F -6.6 °F -0.4 °F 62% 30.09 in 10.0 mi West 16.1 mph - N/A   Scattered Clouds
3:45 PM 8.6 °F -7.7 °F -0.4 °F 67% 30.09 in 10.0 mi West 13.8 mph 24.2 mph N/A   Clear
4:45 PM 6.8 °F -7.8 °F -0.4 °F 72% 30.12 in - West 10.4 mph 20.7 mph N/A   Clear
5:45 PM 5.0 °F -12.3 °F -2.2 °F 72% 30.16 in - West 13.8 mph 20.7 mph N/A   Clear
6:45 PM 5.0 °F -6.9 °F -2.2 °F 72% 30.19 in 10.0 mi West 6.9 mph - N/A   Clear
7:45 PM 3.2 °F -12.2 °F -2.2 °F 78% 30.23 in - WSW 10.4 mph 16.1 mph N/A   Clear
8:45 PM 3.2 °F -9.1 °F -2.2 °F 78% 30.25 in 10.0 mi WSW 6.9 mph - N/A   Clear
9:14 PM 1.4 °F -12.5 °F -4.0 °F 78% 30.26 in 10.0 mi West 8.1 mph - N/A   Clear
9:34 PM 1.4 °F -13.5 °F -4.0 °F 78% 30.26 in 10.0 mi West 9.2 mph - N/A   Clear
9:54 PM 1.4 °F -13.5 °F -4.0 °F 78% 30.26 in 10.0 mi West 9.2 mph - N/A   Clear
10:14 PM 1.4 °F -13.5 °F -5.8 °F 72% 30.27 in 10.0 mi West 9.2 mph - N/A   Clear
10:34 PM 1.4 °F -13.5 °F -5.8 °F 72% 30.27 in 10.0 mi West 9.2 mph - N/A   Clear
10:54 PM 1.4 °F -9.9 °F -5.8 °F 72% 30.28 in 10.0 mi WSW 5.8 mph - N/A   Clear
11:14 PM 1.4 °F -11.3 °F -5.8 °F 72% 30.29 in 10.0 mi WSW 6.9 mph - N/A   Clear
11:33 PM -0.4 °F -12.0 °F -5.8 °F 78% 30.29 in 10.0 mi WSW 5.8 mph - N/A   Clear
11:54 PM -0.4 °F -14.7 °F -5.8 °F 78% 30.30 in 10.0 mi WSW 8.1 mph - N/A   Clear